Wind_Speed
14 15 17 17 17 18 18 18 17 16 16 17 16 17 17 15 15 16 15 15 18 19 17 18 17 17 18 18 18 18 18 19 19 20 21 22 22 23 23 21 21 21 21 20 20 20 20 19 18 18 18 18
12 15 16 17 18 18 17 17 17 17 18 19 19 20 17 13 14 15 15 16 18 18 17 17 17 18 20 19 19 18 18 19 19 19 20 19 19 22 23 24 24 23 23 22 21 21 21 20 18 18 17 17
10 14 15 16 17 19 18 17 17 18 19 20 20 20 16 14 16 15 14 14 16 18 18 17 17 20 22 21 20 19 19 18 18 19 20 20 19 21 23 24 24 23 23 23 23 21 21 21 19 18 17 17
10 13 14 13 14 15 16 17 17 17 19 20 20 20 17 17 18 14 12 13 17 18 17 17 17 20 22 21 20 19 18 18 17 17 19 21 21 22 23 24 23 22 22 25 26 23 23 23 20 18 16 16
10 12 13 12 12 12 13 15 16 17 18 19 20 20 18 18 18 15 13 16 19 18 17 17 17 18 20 20 20 18 16 17 17 16 17 18 19 20 21 22 22 21 20 23 25 24 25 23 19 17 14 13
10 11 12 12 12 12 13 14 16 16 17 18 19 20 20 19 19 17 16 18 19 17 18 16 15 16 18 19 19 16 15 16 16 15 14 15 16 17 18 19 18 19 18 19 22 23 24 17 13 12 10 11
12 12 12 12 13 14 14 15 16 16 17 17 18 19 19 19 19 19 17 18 17 15 18 17 13 13 15 19 19 17 16 16 15 15 15 13 13 13 12 12 11 11 10 11 15 15 13 8 6 9 10 12
13 13 12 13 13 14 15 16 17 17 17 17 17 18 19 18 17 19 18 17 17 15 17 19 15 14 16 19 19 19 18 17 17 16 15 14 12 11 10 8 5 4 3 3 6 6 6 6 7 8 9 11
13 12 12 14 14 14 15 16 16 17 18 19 19 19 19 17 16 17 18 18 18 17 17 19 19 19 19 18 19 20 19 18 19 18 16 15 14 14 12 10 8 5 2 1 2 3 3 4 6 6 6 7
12 11 13 15 15 15 15 16 16 16 18 20 20 20 19 18 16 15 17 17 18 18 18 19 21 20 20 19 19 20 19 18 19 19 18 16 16 16 14 12 11 9 7 5 4 3 2 1 1 3 4 5
11 11 13 15 15 15 16 16 15 16 18 19 20 20 20 20 18 17 17 16 16 17 19 20 20 19 19 20 20 20 19 18 18 19 18 17 17 16 15 14 13 12 10 9 8 7 6 6 5 5 5 5
11 11 12 14 14 14 16 16 17 17 18 19 19 20 20 20 19 18 18 16 15 16 18 19 19 18 17 18 19 21 20 19 18 19 18 17 17 16 16 15 15 14 13 12 11 10 9 8 8 8 8 7
11 11 12 13 14 15 16 16 17 18 19 19 18 18 20 20 18 18 17 16 15 14 16 18 19 18 17 17 18 20 21 20 19 19 19 19 18 17 17 16 16 15 14 14 13 12 11 10 10 10 9 9
10 11 12 12 14 15 15 16 17 18 19 19 18 18 20 20 18 17 17 17 16 15 16 16 17 17 16 17 19 20 20 20 18 18 19 20 19 18 18 17 17 16 15 15 14 13 13 12 12 11 10 10
9 10 11 12 13 14 14 15 16 17 18 18 18 18 19 19 18 18 17 17 16 16 17 17 16 16 15 15 18 19 18 18 17 16 17 19 18 17 18 17 16 17 17 16 16 16 15 14 12 11 11 11
9 9 10 11 11 13 15 15 15 16 17 18 18 18 18 19 19 19 18 16 16 17 17 18 18 18 17 16 17 18 17 15 16 15 15 16 17 16 16 16 16 17 16 17 17 16 16 15 14 13 12 12
8 8 10 11 11 13 15 15 15 16 16 18 18 18 18 18 19 19 18 17 17 17 17 18 18 18 19 17 16 16 16 14 14 15 14 13 16 16 15 16 17 16 16 17 16 15 15 14 14 14 13 13
8 8 9 10 10 12 13 13 14 15 16 17 18 18 18 17 18 18 17 17 17 17 18 18 17 17 19 19 16 15 15 13 14 16 15 13 13 15 16 16 17 16 16 16 16 16 15 14 14 14 13 14
7 8 9 9 10 11 12 12 13 14 15 16 17 17 17 17 18 18 17 17 16 15 17 17 16 17 17 18 17 16 16 15 15 16 16 15 12 13 15 16 16 16 16 16 16 16 15 15 14 14 14 13
6 7 7 9 11 11 12 13 12 13 14 14 15 16 16 17 17 17 16 17 16 14 16 16 16 18 16 17 17 17 17 17 17 16 16 16 14 13 12 12 14 15 15 15 15 14 14 14 13 13 12 12
7 8 7 8 10 11 11 13 12 12 13 14 15 15 16 16 16 16 16 17 16 14 16 16 16 17 16 16 17 16 17 18 18 17 16 17 16 14 12 12 13 14 14 13 14 13 13 12 12 11 11 11
8 9 8 7 8 9 10 11 12 12 13 14 16 15 15 16 16 16 16 17 16 15 15 15 15 16 16 16 16 17 18 18 17 16 16 16 16 15 14 14 15 16 14 11 12 13 12 11 11 11 11 12
6 7 6 5 5 7 10 10 12 13 14 15 16 16 16 16 16 16 16 16 17 16 15 14 15 16 17 16 16 17 18 18 18 16 14 14 15 14 13 14 16 17 14 10 10 11 9 10 10 11 12 14
5 4 3 5 6 7 9 9 10 13 14 15 17 17 16 16 16 16 16 16 16 17 16 15 16 16 16 15 15 17 18 18 18 17 15 13 13 13 13 14 17 19 13 10 11 9 6 7 10 11 13 15
6 4 3 5 7 7 8 8 9 12 15 16 16 17 16 16 16 16 16 16 16 17 17 16 16 16 16 15 15 15 15 15 14 15 15 14 13 12 14 15 17 20 14 10 13 8 3 3 8 10 11 13
5 5 5 4 5 5 6 8 9 12 14 15 15 16 17 16 16 16 17 17 16 16 17 17 16 16 16 16 15 13 12 13 13 14 14 16 15 13 14 14 16 20 16 12 13 8 2 1 5 7 8 12
6 6 7 6 6 6 5 8 11 10 11 13 14 15 17 17 17 17 17 17 17 17 17 18 17 16 16 17 17 14 13 14 15 15 14 16 17 15 14 13 13 18 17 15 15 8 2 0 1 3 6 12
7 6 7 7 8 9 8 8 7 5 8 11 13 14 16 17 17 17 17 17 17 17 17 17 17 16 15 16 17 16 15 15 16 16 15 15 16 16 16 14 13 15 16 17 14 6 3 3 2 1 5 12
7 5 4 4 6 7 7 5 5 6 9 12 13 14 15 16 16 16 16 16 17 17 17 17 17 17 16 16 17 16 16 16 17 17 17 15 14 14 16 14 12 14 14 13 14 10 4 3 1 1 7 10
7 4 3 3 3 4 5 5 8 9 11 12 13 13 13 14 15 15 15 15 16 16 16 16 16 16 16 16 16 16 16 16 16 17 17 16 14 13 13 12 11 13 14 10 11 12 8 5 3 3 7 6
6 6 5 6 5 4 4 5 6 7 8 9 10 10 11 13 14 15 15 15 15 16 15 15 16 16 16 16 15 15 16 16 16 17 17 16 14 11 12 12 11 12 13 11 10 11 9 7 6 6 6 3
Wind_Direction
340 348 354 355 358 360 358 0 1 359 359 356 354 349 345 346 348 344 341 340 336 337 338 333 332 329 323 318 313 310 307 299 291 279 270 269 266 263 264 265 265 266 269 268 267 267 267 269 271 272 274 276
340 345 355 356 357 358 356 0 1 359 0 1 0 357 355 359 358 350 349 345 337 338 340 339 342 341 335 330 321 315 312 304 293 285 280 275 267 264 264 264 262 260 264 268 266 267 268 268 270 272 274 277
346 346 360 2 357 356 355 358 0 1 359 1 1 358 0 8 3 352 352 344 330 334 343 348 348 345 341 335 329 322 318 313 301 291 288 285 278 271 265 264 264 260 260 265 266 264 266 267 270 271 273 279
2 349 3 5 356 360 356 354 359 2 358 360 2 0 5 9 358 348 355 344 328 334 349 358 352 346 344 340 338 335 329 322 313 302 296 294 290 285 277 273 275 273 263 262 262 261 266 266 263 267 272 281
7 348 4 360 349 4 356 349 357 1 359 1 5 3 7 8 358 354 3 349 339 345 354 358 354 349 348 346 346 346 346 340 329 317 307 301 297 295 290 286 285 285 276 266 264 264 268 265 253 259 272 278
357 345 7 352 346 4 354 351 360 2 360 2 5 3 4 4 2 7 6 349 344 351 352 351 354 357 352 349 349 353 360 353 344 337 327 316 307 302 298 294 289 290 289 279 273 266 266 263 242 242 254 262
352 354 9 348 351 3 355 358 3 2 359 1 5 6 6 1 360 6 3 349 346 353 354 348 350 2 359 353 354 1 4 355 355 356 349 344 335 323 311 303 293 289 289 272 265 256 249 245 228 236 247 257
356 2 6 349 358 360 355 2 2 1 0 3 8 7 7 4 0 3 2 356 353 0 359 351 355 8 8 1 359 3 4 1 5 5 2 2 358 352 345 334 326 298 268 224 227 223 219 235 249 256 258 263
360 4 2 356 2 357 355 1 0 1 1 5 7 5 5 5 6 5 3 2 358 6 6 357 3 8 7 7 3 4 4 7 8 6 12 11 8 9 6 3 8 15 18 71 156 193 211 236 253 263 268 274
3 6 5 3 5 0 360 1 360 359 360 5 6 3 2 2 7 6 4 6 1 6 10 4 5 4 5 7 7 8 4 8 9 5 13 18 16 15 14 15 17 23 31 37 52 58 46 34 326 312 314 306
7 8 7 4 6 3 4 4 2 0 1 5 3 0 359 358 4 6 3 7 3 6 12 7 4 4 5 6 7 9 5 9 13 6 13 20 20 20 17 18 20 22 25 29 33 31 28 24 19 8 355 343
10 12 7 3 5 4 5 6 5 4 4 5 4 360 356 355 1 4 0 3 3 7 15 7 2 5 7 8 8 6 5 11 11 7 16 20 19 23 21 17 20 22 21 24 27 24 25 23 20 17 9 6
13 13 7 5 8 6 6 8 8 7 4 3 7 4 357 356 2 3 359 3 5 9 20 9 1 5 8 13 15 8 5 10 9 6 13 19 20 22 23 21 21 22 21 23 26 24 25 27 24 20 15 14
16 10 7 8 8 3 1 5 7 6 3 2 10 9 1 2 8 9 7 8 9 15 22 12 3 7 9 16 19 10 5 9 9 7 8 13 20 20 20 24 22 21 23 24 27 29 28 29 26 20 17 16
15 10 9 9 7 4 5 7 7 7 5 7 15 13 5 8 13 15 17 14 15 19 18 13 9 7 10 21 21 8 6 12 10 11 10 8 14 21 20 20 24 25 24 27 30 30 29 28 29 28 28 27
15 12 12 10 7 7 11 11 9 7 5 9 17 15 7 11 16 17 19 17 22 21 17 21 14 2 8 23 24 12 8 16 14 13 15 8 7 20 27 24 28 32 30 33 35 34 34 32 33 35 36 36
15 11 12 13 8 4 7 9 8 4 2 7 13 13 10 13 16 17 17 17 24 24 22 29 14 359 8 16 25 20 8 15 21 15 15 14 9 11 24 29 30 33 36 38 39 40 42 41 40 38 37 38
16 11 12 11 6 5 6 7 7 4 7 9 10 12 11 14 18 17 16 17 23 24 23 27 14 4 12 12 20 25 13 17 28 20 13 16 22 12 12 22 26 29 34 36 37 39 41 43 46 44 40 39
20 12 12 7 8 14 11 12 13 9 13 14 11 13 14 17 21 17 17 20 21 27 25 22 15 8 14 15 16 24 21 22 31 28 16 14 28 27 15 15 19 25 29 31 32 32 32 35 39 39 39 38
22 14 8 2 12 19 10 14 20 14 16 20 16 17 19 21 24 19 22 26 22 33 31 22 20 9 12 22 17 21 24 24 29 28 23 19 22 27 26 20 18 22 26 27 28 26 25 27 29 31 32 35
21 25 19 5 9 14 8 13 19 18 20 23 21 20 23 23 25 23 26 31 26 36 34 26 29 9 6 26 20 20 25 23 28 27 24 22 19 19 21 23 20 18 18 20 22 18 18 21 23 27 29 34
10 14 18 15 10 5 6 14 12 18 26 27 26 25 26 26 27 27 29 34 30 36 37 33 35 16 12 29 24 22 28 25 27 28 27 20 17 17 15 18 18 9 3 7 13 8 10 16 19 27 33 37
14 13 7 5 19 8 7 16 9 16 28 29 30 29 29 30 31 31 31 34 32 33 39 38 35 26 24 30 24 23 27 25 24 27 33 24 16 17 13 12 12 5 0 1 0 350 354 10 21 34 42 41
28 43 19 2 26 18 8 17 10 14 25 27 30 31 30 32 33 34 31 32 34 33 36 38 34 31 34 36 29 24 22 22 23 22 29 30 20 16 11 10 11 7 5 4 357 341 335 10 34 45 49 44
22 24 38 26 28 20 10 17 14 16 22 21 24 28 30 31 31 34 32 31 35 35 34 35 36 36 40 44 41 31 21 20 26 27 29 32 31 27 17 15 12 8 9 8 1 352 336 28 55 55 50 40
31 24 36 35 31 26 11 13 21 22 19 14 15 22 27 28 28 31 32 31 33 36 37 34 35 40 42 42 42 38 27 23 30 37 38 34 31 32 29 26 15 11 17 6 347 331 292 101 88 76 55 30
39 35 49 58 54 50 30 24 31 23 8 8 10 15 22 25 25 26 29 30 29 32 36 34 32 38 42 40 36 34 32 29 30 35 44 42 29 24 28 32 21 16 20 8 350 331 282 90 98 116 58 18
43 22 29 31 26 32 45 44 38 13 354 5 9 10 18 24 24 23 25 27 27 27 31 33 31 32 38 40 35 32 32 32 32 32 39 44 35 24 18 15 15 18 20 17 15 7 280 287 312 165 19 359
62 26 9 3 356 19 44 27 349 354 360 4 9 10 14 21 22 22 24 26 26 25 27 30 31 30 32 37 35 31 33 35 34 33 35 39 40 34 18 4 7 14 16 27 33 27 360 319 344 31 346 341
79 61 47 52 52 53 54 17 358 6 3 360 7 9 9 16 21 22 22 26 26 24 26 28 29 30 30 33 34 29 31 36 36 34 35 37 38 39 27 11 11 12 10 24 30 29 33 17 356 341 335 331
94 91 76 63 66 77 79 53 19 6 359 1 7 7 10 16 18 20 21 24 27 23 23 28 27 28 29 29 30 27 26 30 35 33 32 36 38 38 32 22 16 8 6 12 11 17 28 13 358 349 337 327
Height
847 847 846 846 844 844 843 842 841 840 839 837 836 834 832 831 830 829 827 827 826 825 824 822 821 820 819 817 816 815 814 813 812 812 811 810 810 811 811 812 812 812 812 812 812 812 812 812 812 813 814 814
847 846 846 845 844 844 843 842 841 840 839 837 836 834 833 831 830 829 827 826 825 824 823 822 821 820 818 817 816 814 813 812 812 811 810 809 809 809 809 809 809 810 810 811 811 811 811 811 811 812 812 813
847 846 846 845 844 843 842 842 841 840 839 837 836 834 833 831 830 829 828 827 825 824 823 821 821 819 818 817 815 814 812 811 811 810 809 809 808 807 807 807 807 807 808 809 809 810 810 810 810 811 811 811
847 847 846 845 844 843 842 841 840 840 838 837 836 834 833 831 830 829 828 827 825 824 823 821 820 819 818 816 815 813 812 811 810 809 808 807 807 806 805 805 805 805 806 807 807 808 808 808 809 810 810 810
848 847 847 846 844 844 843 841 840 839 838 837 835 834 833 831 830 829 828 828 826 824 823 822 821 819 818 816 815 813 812 811 809 808 807 806 805 805 804 803 803 803 804 805 805 806 806 807 808 808 808 810
848 847 847 846 844 844 843 841 839 838 837 836 834 833 832 831 830 829 828 828 826 825 823 822 820 819 818 816 814 813 812 811 809 808 806 806 804 803 803 802 802 802 802 803 803 804 805 805 806 806 806 808
848 847 847 846 844 844 843 841 840 838 837 835 834 833 832 831 830 829 828 828 827 825 824 822 820 819 818 816 815 813 812 811 809 808 806 805 804 803 802 801 801 801 801 801 802 802 803 804 803 804 805 806
847 847 846 845 844 844 843 842 840 839 838 836 834 833 832 831 830 829 828 828 826 825 824 823 821 819 818 817 815 813 812 811 809 808 806 805 804 803 802 801 801 800 800 800 800 801 801 802 802 803 804 804
848 847 846 845 844 844 843 842 841 840 838 837 835 833 833 831 830 829 828 827 826 825 824 823 821 820 818 817 816 814 812 811 810 808 807 806 804 804 803 802 801 801 800 800 800 800 800 801 801 802 802 803
848 847 846 845 845 844 843 842 841 840 839 838 836 835 833 832 830 829 828 827 826 825 824 824 822 821 820 818 817 815 814 812 811 809 808 807 806 805 804 803 803 802 801 801 800 800 800 801 801 802 803 804
848 847 847 846 845 845 844 843 842 841 840 839 837 836 834 833 831 829 828 827 826 825 824 824 823 822 821 820 819 817 815 814 812 811 809 808 807 806 805 804 804 803 803 802 801 801 801 801 802 803 803 804
848 848 847 847 846 845 845 844 843 842 841 840 838 837 835 834 832 830 829 827 826 824 824 824 823 823 822 821 820 819 817 815 813 812 810 809 808 807 806 805 805 804 804 803 802 802 802 802 803 803 804 805
849 849 848 848 847 846 846 845 844 843 842 841 839 838 837 835 833 831 830 828 827 825 824 824 824 823 822 821 821 820 819 817 816 814 812 811 809 808 807 806 806 805 805 804 803 803 803 803 803 804 805 805
849 849 849 848 848 847 846 846 845 844 843 842 840 839 838 836 834 832 831 829 827 826 825 825 824 822 822 822 821 821 820 819 818 816 814 813 811 810 808 807 807 806 806 805 805 805 804 804 804 805 806 806
850 850 849 849 848 848 847 846 846 845 844 843 841 840 839 837 835 833 831 830 828 827 826 826 824 823 822 821 821 821 821 820 820 818 817 815 813 812 810 809 808 808 807 807 806 806 805 806 806 807 807 808
851 850 850 849 849 848 848 847 846 846 845 843 842 840 840 838 836 835 833 831 830 828 828 827 826 824 823 822 821 822 821 821 820 820 818 817 816 814 813 812 810 809 809 808 807 807 807 808 808 808 808 808
851 851 851 850 850 849 848 848 847 846 845 844 843 841 840 839 837 836 834 832 831 830 829 828 827 826 824 823 822 822 822 821 820 820 819 818 817 816 814 813 812 811 810 810 809 809 809 809 809 809 809 809
852 852 852 851 851 850 849 848 847 846 846 845 843 842 841 839 838 837 835 834 832 831 830 829 828 827 825 824 823 822 822 821 821 820 820 819 818 817 816 815 814 813 812 811 811 810 810 810 810 810 810 810
853 853 852 852 851 851 850 849 848 847 846 845 844 843 841 840 839 837 836 835 833 832 831 830 829 828 826 825 824 823 822 821 821 821 821 820 819 819 818 817 815 814 814 813 812 812 812 811 811 810 810 810
854 854 853 853 852 852 851 850 849 848 847 846 844 843 842 840 839 838 837 835 834 833 832 831 830 829 827 826 825 824 823 822 821 821 821 821 820 820 819 818 817 816 815 814 814 813 813 812 812 812 811 811
854 854 854 854 854 853 852 851 850 849 847 846 845 843 842 841 840 839 837 836 835 834 833 832 832 830 828 827 826 825 824 823 823 822 822 822 821 820 820 819 818 817 816 816 815 814 814 813 813 812 812 812
855 855 855 855 855 854 853 852 851 849 848 847 846 844 843 842 841 839 838 837 836 835 834 833 832 831 829 828 827 826 825 825 824 823 823 822 822 822 821 820 819 818 817 816 816 815 815 814 814 813 813 813
855 855 856 856 856 856 854 853 852 850 849 848 847 845 844 843 841 840 839 838 836 835 834 834 833 832 830 829 829 828 826 826 825 824 823 823 823 823 822 821 821 819 818 817 816 816 816 815 815 814 814 814
855 856 856 856 856 856 855 854 853 851 850 849 847 846 845 844 842 841 840 838 837 836 835 834 834 832 831 830 830 829 828 827 826 825 824 823 824 823 823 822 821 820 818 817 816 816 816 816 816 815 815 815
855 855 855 856 856 856 855 855 853 852 851 850 848 847 846 844 843 842 841 840 838 837 836 835 834 833 832 831 830 830 829 828 827 826 825 824 824 824 823 823 822 821 819 817 817 816 816 817 817 816 816 816
855 855 856 856 856 856 856 855 854 853 852 851 849 848 847 846 844 843 842 841 840 839 838 837 836 834 833 832 831 831 830 829 828 827 826 825 824 824 824 824 823 822 820 819 818 818 817 817 817 817 817 817
856 856 856 856 856 856 856 855 855 854 853 852 850 849 848 847 845 844 843 842 841 840 839 838 837 836 834 833 832 831 830 829 828 827 826 826 826 825 825 825 825 824 823 822 819 818 818 817 817 817 817 817
857 857 857 857 857 857 857 856 856 855 854 853 851 850 849 847 846 845 844 843 842 841 840 839 838 837 836 835 834 832 831 830 829 828 827 827 827 827 826 826 826 826 825 824 821 820 819 817 816 817 818 818
857 858 858 858 858 857 857 857 856 855 854 853 852 851 850 849 848 847 845 844 843 842 841 840 839 839 837 836 835 834 833 831 830 829 828 828 828 828 828 827 827 827 826 826 825 824 823 821 820 820 821 820
857 858 858 858 857 857 857 857 856 855 855 854 853 852 851 850 849 848 847 845 845 844 843 842 841 840 839 837 836 835 834 833 832 831 830 829 829 829 829 829 828 828 827 827 827 827 826 826 826 825 824 822
857 858 858 859 858 858 858 857 857 856 856 855 854 854 853 852 850 849 848 847 846 845 844 843 842 841 840 839 838 837 836 834 833 833 832 831 831 830 830 829 829 829 828 827 827 827 827 827 827 826 825 824